Casa Grande, AZ

6:09 AM MST on October 22, 2017 (GMT -0700)
Casa Grande Municipal

Weather History for KCGZ - May, 2013

Change the Weather History Date:

Sunday, May 5, 2013

  Actual Average Record
Temperature  
Mean Temperature 78 °F -  
Max Temperature 89 °F 87 °F 104 °F (2017)
Min Temperature 66 °F 55 °F 48 °F (1999)
Cooling Degree Days 12    
Growing Degree Days 28 (Base 50)    
Moisture  
Dew Point 27 °F    
Average Humidity 15    
Maximum Humidity 25    
Minimum Humidity 10    
Precipitation  
Precipitation 0.00 in - - ()
Sea Level Pressure  
Sea Level Pressure 29.84 in    
Wind  
Wind Speed 11 mph (SSW)    
Max Wind Speed 23 mph    
Max Gust Speed 30 mph    
Visibility 10 miles    
Events      
Averages and records for this station are not official NWS values.
T = Trace of Precipitation, MM = Missing Value Source: NWS Daily Summary

Daily Weather History Graph

Daily Weather History Graph

Search for Another Location

Airport or City:

Trip Planner

Search our weather history database for the weather conditions in past years. The results will help you decide how hot, cold, wet, or windy it might be!

Date:

Astronomy

May. 05, 2013 Rise Set
Actual Time 5:35 AM MST 7:12 PM MST
Civil Twilight 5:09 AM MST 7:38 PM MST
Nautical Twilight 4:37 AM MST 8:10 PM MST
Astronomical Twilight 4:03 AM MST 8:44 PM MST
Moon 2:54 AM MST (5/5) 3:27 PM MST (5/5)
Length of Visible Light 14h 29m
Length of Day
13h 36m
Waning Crescent, 17% of the Moon is Illuminated
May 5
Waning Crescent
May 9
New
May 17
First Quarter
May 24
Full
May 31
Last Quarter

Hourly Weather History & Observations

Time (MST) Temp. Dew Point Humidity Pressure Visibility Wind Dir Wind Speed Gust Speed Precip Events Conditions
12:15 AM 75.2 °F 15.8 °F 11% 29.80 in 10.0 mi South 13.8 mph 19.6 mph N/A   Clear
12:35 AM 75.2 °F 19.4 °F 12% 29.81 in 10.0 mi SSE 12.7 mph 19.6 mph N/A   Clear
12:55 AM 73.4 °F 19.4 °F 13% 29.81 in 10.0 mi SSE 9.2 mph - N/A   Clear
1:15 AM 73.4 °F 19.4 °F 13% 29.81 in 10.0 mi South 11.5 mph - N/A   Clear
1:35 AM 73.4 °F 21.2 °F 14% 29.81 in 10.0 mi South 11.5 mph 18.4 mph N/A   Clear
1:55 AM 75.2 °F 23.0 °F 14% 29.81 in 10.0 mi South 11.5 mph 25.3 mph N/A   Clear
2:15 AM 73.4 °F 23.0 °F 15% 29.81 in 10.0 mi South 9.2 mph - N/A   Clear
2:35 AM 73.4 °F 21.2 °F 14% 29.81 in 10.0 mi South 8.1 mph - N/A   Clear
2:55 AM 73.4 °F 21.2 °F 14% 29.82 in 10.0 mi SE 4.6 mph - N/A   Clear
3:15 AM 71.6 °F 21.2 °F 15% 29.82 in 10.0 mi NE 8.1 mph - N/A   Clear
3:35 AM 73.4 °F 24.8 °F 16% 29.82 in 10.0 mi Calm Calm - N/A   Clear
3:55 AM 73.4 °F 24.8 °F 16% 29.83 in 10.0 mi SSW 5.8 mph - N/A   Clear
4:15 AM 71.6 °F 26.6 °F 19% 29.82 in 10.0 mi SE 9.2 mph - N/A   Clear
4:35 AM 71.6 °F 26.6 °F 19% 29.82 in 10.0 mi SSE 8.1 mph - N/A   Clear
4:55 AM 71.6 °F 26.6 °F 19% 29.84 in 10.0 mi SSW 3.5 mph - N/A   Clear
5:15 AM 68.0 °F 26.6 °F 21% 29.85 in 10.0 mi WSW 5.8 mph - N/A   Clear
5:35 AM 66.2 °F 26.6 °F 23% 29.85 in 10.0 mi WSW 3.5 mph - N/A   Clear
5:55 AM 68.0 °F 26.6 °F 21% 29.85 in 10.0 mi SW 3.5 mph - N/A   Clear
6:15 AM 68.0 °F 26.6 °F 21% 29.87 in 10.0 mi WSW 4.6 mph - N/A   Clear
6:35 AM 69.8 °F 28.4 °F 21% 29.88 in 10.0 mi East 3.5 mph - N/A   Clear
6:55 AM 69.8 °F 28.4 °F 21% 29.88 in 10.0 mi ENE 4.6 mph - N/A   Clear
7:15 AM 73.4 °F 28.4 °F 19% 29.88 in 10.0 mi SE 3.5 mph - N/A   Clear
7:35 AM 73.4 °F 28.4 °F 19% 29.89 in 10.0 mi ENE 5.8 mph - N/A   Clear
7:55 AM 73.4 °F 30.2 °F 20% 29.89 in 10.0 mi East 3.5 mph - N/A   Clear
8:15 AM 75.2 °F 30.2 °F 19% 29.90 in 10.0 mi Calm Calm - N/A   Clear
8:35 AM 77.0 °F 30.2 °F 18% 29.90 in 10.0 mi SSE 6.9 mph - N/A   Clear
8:55 AM 78.8 °F 28.4 °F 16% 29.90 in 10.0 mi South 8.1 mph 16.1 mph N/A   Clear
9:15 AM 80.6 °F 28.4 °F 15% 29.90 in 10.0 mi South 13.8 mph 18.4 mph N/A   Clear
9:35 AM 82.4 °F 26.6 °F 13% 29.90 in 10.0 mi South 17.3 mph 21.9 mph N/A   Clear
9:55 AM 82.4 °F 26.6 °F 13% 29.90 in 10.0 mi SSW 8.1 mph 18.4 mph N/A   Clear
10:15 AM 82.4 °F 24.8 °F 12% 29.90 in 10.0 mi SSE 16.1 mph 25.3 mph N/A   Clear
10:35 AM 84.2 °F 24.8 °F 11% 29.89 in 10.0 mi South 19.6 mph 28.8 mph N/A   Clear
11:15 AM 84.2 °F 23.0 °F 11% 29.90 in 10.0 mi South 18.4 mph 23.0 mph N/A   Clear
11:35 AM 86.0 °F 24.8 °F 11% 29.89 in 10.0 mi South 16.1 mph 25.3 mph N/A   Clear
11:55 AM 86.0 °F 24.8 °F 11% 29.88 in 10.0 mi South 13.8 mph 27.6 mph N/A   Clear
12:15 PM 86.0 °F 24.8 °F 11% 29.88 in 10.0 mi SSW 15.0 mph 26.5 mph N/A   Clear
12:35 PM 86.0 °F 24.8 °F 11% 29.87 in 10.0 mi SSE 16.1 mph 24.2 mph N/A   Clear
12:55 PM 87.8 °F 24.8 °F 10% 29.86 in 10.0 mi SW 17.3 mph 23.0 mph N/A   Clear
1:15 PM 87.8 °F 24.8 °F 10% 29.85 in 10.0 mi SW 12.7 mph 20.7 mph N/A   Clear
1:35 PM 87.8 °F 24.8 °F 10% 29.84 in 10.0 mi SSW 18.4 mph 25.3 mph N/A   Partly Cloudy
1:55 PM 87.8 °F 26.6 °F 11% 29.83 in 10.0 mi SW 6.9 mph - N/A   Partly Cloudy
2:15 PM 89.6 °F 26.6 °F 10% 29.82 in 10.0 mi SSW 15.0 mph 23.0 mph N/A   Clear
2:35 PM 89.6 °F 26.6 °F 10% 29.81 in 10.0 mi South 11.5 mph 26.5 mph N/A   Clear
2:55 PM 89.6 °F 26.6 °F 10% 29.80 in 10.0 mi WSW 18.4 mph 26.5 mph N/A   Clear
3:15 PM 89.6 °F 26.6 °F 10% 29.79 in 10.0 mi SSW 12.7 mph 19.6 mph N/A   Clear
3:35 PM 89.6 °F 26.6 °F 10% 29.79 in 10.0 mi SSW 18.4 mph 25.3 mph N/A   Clear
3:55 PM 89.6 °F 26.6 °F 10% 29.78 in 10.0 mi SW 16.1 mph 24.2 mph N/A   Clear
4:15 PM 89.6 °F 26.6 °F 10% 29.78 in 10.0 mi SSW 11.5 mph 28.8 mph N/A   Clear
4:35 PM 89.6 °F 26.6 °F 10% 29.77 in 4.0 mi SW 12.7 mph 21.9 mph N/A   Clear
4:55 PM 89.6 °F 26.6 °F 10% 29.76 in 10.0 mi SSW 18.4 mph 24.2 mph N/A   Clear
5:15 PM 87.8 °F 26.6 °F 11% 29.76 in 10.0 mi SW 16.1 mph 20.7 mph N/A   Clear
5:35 PM 87.8 °F 33.8 °F 15% 29.76 in 10.0 mi WSW 18.4 mph - N/A   Clear
5:55 PM 87.8 °F 32.0 °F 14% 29.76 in 10.0 mi SW 20.7 mph 24.2 mph N/A   Clear
6:15 PM 86.0 °F 30.2 °F 13% 29.76 in 10.0 mi SW 17.3 mph - N/A   Clear
6:35 PM 84.2 °F 33.8 °F 16% 29.77 in 10.0 mi WSW 13.8 mph - N/A   Clear
6:55 PM 82.4 °F 35.6 °F 19% 29.78 in 10.0 mi SW 16.1 mph 19.6 mph N/A   Clear
7:35 PM 80.6 °F 30.2 °F 16% 29.79 in 10.0 mi SW 13.8 mph - N/A   Clear
7:55 PM 80.6 °F 33.8 °F 18% 29.79 in 10.0 mi SSW 16.1 mph - N/A   Clear
8:15 PM 78.8 °F 33.8 °F 20% 29.81 in 10.0 mi SW 11.5 mph - N/A   Clear
8:35 PM 78.8 °F 33.8 °F 20% 29.82 in 10.0 mi SW 18.4 mph 24.2 mph N/A   Clear
8:55 PM 77.0 °F 28.4 °F 17% 29.83 in 10.0 mi SW 16.1 mph 23.0 mph N/A   Clear
9:15 PM 77.0 °F 24.8 °F 14% 29.85 in 10.0 mi SSW 13.8 mph 23.0 mph N/A   Clear
9:35 PM 75.2 °F 24.8 °F 15% 29.85 in 10.0 mi SSW 19.6 mph 26.5 mph N/A   Clear
9:55 PM 75.2 °F 26.6 °F 17% 29.86 in 10.0 mi SSW 20.7 mph 29.9 mph N/A   Clear
10:15 PM 73.4 °F 26.6 °F 18% 29.86 in 10.0 mi SSW 17.3 mph 25.3 mph N/A   Clear
10:35 PM 73.4 °F 28.4 °F 19% 29.87 in 10.0 mi South 23.0 mph 26.5 mph N/A   Clear
10:55 PM 73.4 °F 35.6 °F 25% 29.88 in 10.0 mi SSW 15.0 mph 23.0 mph N/A   Clear
11:35 PM - - N/A% - - North - - N/A   Unknown
11:55 PM - - N/A% - - North - - N/A   Unknown